Location: Ku?niki
(51.4449°N, 17.8974°E)
Time: 03:31:39
(UTC+00:00)

USA 229 DEB - Pass Details

Date: 18 September 2020
Orbit: 971 x 1241 km, 63.4° (Epoch: 14 October)

Event Time Altitude Azimuth Distance (km) Brightness Sun altitude
Rises 22:28:07 0° 311° (NW) 3,896 7.2 -37.1°
Reaches altitude 10° 22:30:47 10° 316° (NW) 2,976 6.5 -37.1°
Enters shadow 22:37:21 57° 20° (NNE) 1,345 4.3 -37.1°
